St. Petersburg, FL

5:57 AM EDT on September 23, 2017 (GMT -0400)
Whitted

Weather History for KSPG - November, 2012

Change the Weather History Date:

Thursday, November 8, 2012

  Actual Average Record
Temperature  
Mean Temperature 60 °F -  
Max Temperature 66 °F 77 °F 97 °F (2008)
Min Temperature 55 °F 62 °F 45 °F (1951)
Degree Days  
Heating Degree Days 4    
Growing Degree Days 10 (Base 50)    
Moisture  
Dew Point 45 °F    
Average Humidity 57    
Maximum Humidity 72    
Minimum Humidity 37    
Precipitation  
Precipitation 0.00 in - - ()
Sea Level Pressure  
Sea Level Pressure 30.11 in    
Wind  
Wind Speed 11 mph (NNE)    
Max Wind Speed 15 mph    
Max Gust Speed 17 mph    
Visibility 10 miles    
Events      
Averages and records for this station are not official NWS values.
T = Trace of Precipitation, MM = Missing Value Source: NWS Daily Summary

Daily Weather History Graph

Daily Weather History Graph

Search for Another Location

Airport or City:

Trip Planner

Search our weather history database for the weather conditions in past years. The results will help you decide how hot, cold, wet, or windy it might be!

Date:

Astronomy

Nov. 08, 2012 Rise Set
Actual Time 6:46 AM EST 5:41 PM EST
Civil Twilight 6:22 AM EST 6:05 PM EST
Nautical Twilight 5:54 AM EST 6:33 PM EST
Astronomical Twilight 5:26 AM EST 7:01 PM EST
Moon 1:10 AM EST (11/8) 1:55 PM EST (11/8)
Length of Visible Light 11h 43m
Length of Day
10h 54m
Waning Crescent, 33% of the Moon is Illuminated
Nov 8
Waning Crescent
Nov 13
New
Nov 20
First Quarter
Nov 28
Full
Dec 6
Last Quarter

Hourly Weather History & Observations

Time (EST) Temp. Dew Point Humidity Pressure Visibility Wind Dir Wind Speed Gust Speed Precip Events Conditions
12:53 AM 62.1 °F 48.0 °F 60% 30.00 in 10.0 mi NE 13.8 mph - N/A   Overcast
1:53 AM 61.0 °F 48.0 °F 62% 30.02 in 10.0 mi ENE 9.2 mph - N/A   Overcast
2:53 AM 61.0 °F 48.0 °F 62% 30.01 in 10.0 mi NE 12.7 mph - N/A   Overcast
3:53 AM 60.1 °F 46.0 °F 60% 30.03 in 10.0 mi NNE 13.8 mph - N/A   Clear
4:53 AM 57.9 °F 45.0 °F 62% 30.04 in 10.0 mi NNE 8.1 mph - N/A   Clear
5:53 AM 57.0 °F 44.1 °F 62% 30.06 in 10.0 mi North 8.1 mph - N/A   Clear
6:53 AM 55.9 °F 44.1 °F 64% 30.09 in 10.0 mi North 8.1 mph - N/A   Clear
7:53 AM 57.9 °F 46.0 °F 65% 30.12 in 10.0 mi NNE 15.0 mph - N/A   Clear
8:53 AM 59.0 °F 45.0 °F 60% 30.14 in 10.0 mi North 12.7 mph - N/A   Clear
9:53 AM 61.0 °F 44.1 °F 54% 30.16 in 10.0 mi NNE 12.7 mph - N/A   Clear
10:53 AM 62.1 °F 44.1 °F 52% 30.16 in 10.0 mi NE 10.4 mph - N/A   Clear
11:53 AM 64.0 °F 42.1 °F 45% 30.14 in 10.0 mi NE 11.5 mph - N/A   Clear
12:53 PM 66.0 °F 44.1 °F 45% 30.12 in 10.0 mi NNE 13.8 mph 17.3 mph N/A   Clear
1:53 PM 66.9 °F 39.9 °F 37% 30.10 in 10.0 mi North 8.1 mph - N/A   Clear
2:53 PM 64.9 °F 39.0 °F 39% 30.10 in 10.0 mi North 11.5 mph - N/A   Clear
3:53 PM 64.9 °F 41.0 °F 42% 30.10 in 10.0 mi NNW 10.4 mph - N/A   Clear
4:53 PM 64.0 °F 42.1 °F 45% 30.10 in 10.0 mi NNW 8.1 mph - N/A   Clear
5:53 PM 62.1 °F 43.0 °F 50% 30.12 in 10.0 mi NNW 8.1 mph - N/A   Clear
6:53 PM 61.0 °F 45.0 °F 56% 30.13 in 10.0 mi North 6.9 mph - N/A   Clear
7:53 PM 60.1 °F 46.9 °F 62% 30.14 in 10.0 mi North 8.1 mph - N/A   Clear
8:53 PM 60.1 °F 48.9 °F 67% 30.16 in 10.0 mi North 8.1 mph - N/A   Clear
9:53 PM 60.1 °F 48.9 °F 67% 30.17 in 10.0 mi North 9.2 mph - N/A   Clear
10:53 PM 60.1 °F 51.1 °F 72% 30.18 in 10.0 mi NNE 6.9 mph - N/A   Clear
11:53 PM 60.1 °F 51.1 °F 72% 30.17 in 10.0 mi NNE 5.8 mph - N/A   Clear